Tracking 31030 objects as of 17-Jul-2025
HD Live streaming from Space Station
objects crossing your sky now

STARLINK-11371

Track STARLINK-11371 now!
10-day predictions
STARLINK-11371 is classified as:


NORAD ID: 62879
Int'l Code: 2025-024A
Perigee: 362.7 km
Apogee: 364.3 km
Inclination: 43.0 °
Period: 91.7 minutes
Semi major axis: 6734 km
RCS: Unknown
Launch date: February 4, 2025
Source: United States (US)
Launch site: AIR FORCE EASTERN TEST RANGE (AFETR)
Your satellite tracking list
Your tracking list is empty




NASA's NSSDC Master Catalog

Two Line Element Set (TLE):
1 62879U 25024A   25197.60752171  .00167583  00000-0  12814-2 0  9996
2 62879  42.9975 164.7858 0001201  54.9792 305.1188 15.70876284 26731
Source of the keplerian elements: AFSPC